User: anonymous   Login
Location: Unspecified
(0.0000°N, 0.0000°E)
Time: 12:02:24
(UTC+00:00)
Language:

N. Korean satellite - Orbit

View from above orbital plane
View from above orbital plane
View from above satellite
View from above satellite

Ground track
Ground track

The orbit data is extracted from the following two-line orbital elements,

1 39026U 12072A   14303.65599072  .00007865  00000-0  40158-3 0  1748
2 39026 097.3138 338.2903 0049562 319.0407 040.7107 15.15883381103883
Epoch (UTC): 30 October 2014 15:44:37
Eccentricity: 0.0049562
inclination: 97.3138°
perigee height: 484 km
apogee height: 552 km
right ascension of ascending node: 338.2903°
argument of perigee: 319.0407°
revolutions per day: 15.15883381
mean anomaly at epoch: 40.7107°
orbit number at epoch: 10388

The dashed part of the orbit path shows where the satellite is in the earth's shadow,  

DLR